This is the latest recevied weather packets stored in our database for station/object 9A3XK-13. If no packets are shown the sender has not sent any weather packets the latest 1 day(s).
| Time | Temp. | Humidity | Pressure | Rain* | Wind** | Luminosity | Snow |
|---|---|---|---|---|---|---|---|
| 1836274690 | 14.44° C | 84% | 1025.2 hPa | 0 mm | 0.45 m/s, 180° | 0 W/m² | - |
| 1778023215 | 16.11° C | 62% | 1011.8 hPa | 0 mm | 1.34 m/s, 225° | 0 W/m² | - |
| 1778022915 | 16.11° C | 61% | 1011.8 hPa | 0 mm | 1.34 m/s, 225° | 0 W/m² | - |
| 1778022615 | 16.11° C | 60% | 1011.9 hPa | 0 mm | 1.34 m/s, 225° | 0 W/m² | - |
| 1778022315 | 16.11° C | 60% | 1011.8 hPa | 0 mm | 1.79 m/s, 203° | 0 W/m² | - |
| 1778022015 | 16.11° C | 61% | 1011.8 hPa | 0 mm | 1.34 m/s, 203° | 0 W/m² | - |
| 1778021715 | 16.11° C | 61% | 1011.9 hPa | 0 mm | 1.79 m/s, 203° | 0 W/m² | - |
| 1778021415 | 16.11° C | 61% | 1011.9 hPa | 0 mm | 0.89 m/s, 203° | 0 W/m² | - |
| 1778021115 | 16.11° C | 61% | 1011.9 hPa | 0 mm | 0.89 m/s, 203° | 0 W/m² | - |
| 1778020815 | 16.11° C | 61% | 1012 hPa | 0 mm | 1.34 m/s, 203° | 0 W/m² | - |
| 1778020517 | 16.11° C | 61% | 1012 hPa | 0 mm | 0.89 m/s, 225° | 0 W/m² | - |
| 1778020216 | 16.11° C | 61% | 1012 hPa | 0 mm | 0.89 m/s, 203° | 0 W/m² | - |
| 1778019917 | 16.11° C | 60% | 1012 hPa | 0 mm | 1.34 m/s, 203° | 0 W/m² | - |
| 1778019617 | 16.11° C | 60% | 1012.1 hPa | 0 mm | 1.34 m/s, 203° | 0 W/m² | - |
| 1778019317 | 16.11° C | 60% | 1012 hPa | 0 mm | 1.79 m/s, 203° | 0 W/m² | - |
| 1778019019 | 16.11° C | 60% | 1012.1 hPa | 0 mm | 1.79 m/s, 203° | 0 W/m² | - |
| 1778018717 | 16.67° C | 59% | 1012.1 hPa | 0 mm | 1.34 m/s, 180° | 0 W/m² | - |
| 1778018417 | 16.67° C | 59% | 1012.1 hPa | 0 mm | 0.89 m/s, 180° | 0 W/m² | - |
| 1778018126 | 16.67° C | 59% | 1012.2 hPa | 0 mm | 0.45 m/s, 203° | 0 W/m² | - |
| 1778017816 | 16.67° C | 58% | 1012.2 hPa | 0 mm | 0.89 m/s, 180° | 0 W/m² | - |
| 1778017517 | 16.67° C | 58% | 1012.2 hPa | 0 mm | 0.45 m/s, 203° | 0 W/m² | - |
| 1778017216 | 17.22° C | 57% | 1012.2 hPa | 0 mm | 0.89 m/s, 203° | 0 W/m² | - |
| 1778016916 | 17.22° C | 57% | 1012.2 hPa | 0 mm | 1.34 m/s, 225° | 0 W/m² | - |
| 1778016617 | 17.22° C | 56% | 1012.2 hPa | 0 mm | 0.89 m/s, 225° | 0 W/m² | - |
| 1778016316 | 17.22° C | 56% | 1012.2 hPa | 0 mm | 0.45 m/s, 203° | 0 W/m² | - |
* Rain latest hour (hover to see other rain measurements)
** Current wind speed in m/s (hover to see current wind gust speed)